#timestamp,LO_Frequency,Hit,StdDev 
1550455215.5,286046998.3,N
1550455235.4,286047002.5,N
1550455255.2,286047002.7,N
1550455275.0,286047001.0,N
1550455275.9,286047001.0,N
1550455295.8,286047001.0,N
1550455315.6,286046999.8,N
1550455335.4,286047001.2,N
1550455355.3,286046997.2,N
1550455375.1,286047001.1,N
1550455395.9,286047002.0,N
1550455415.7,286047000.9,N
1550455435.5,286046997.3,N
1550455455.4,286046995.3,N
1550455475.2,286046995.5,N
1550455495.0,286046996.1,N
1550455495.9,286046996.1,N
1550455515.8,286046994.4,N
1550455535.6,286046993.5,N
1550455555.5,286046995.2,N
1550455575.3,286046995.7,N
1550455595.1,286046994.2,N
1550455615.9,286046994.2,N
1550455635.7,286046992.3,N
1550455655.5,286046994.1,N
1550455675.4,286046996.2,N
1550455695.2,286046997.2,N
1550455715.1,286046997.9,N
1550455716.0,286046997.9,N
1550455735.8,286046996.6,N
1550455755.6,286046995.4,N
1550455775.5,286046999.2,N
1550455795.3,286046997.2,N
1550455815.4,286047001.1,N
1550455835.2,286046998.1,N
1550455855.0,286047000.4,N
1550455855.9,286047000.4,N
1550455875.8,286046999.1,N
1550455895.6,286046998.1,N
1550455915.4,286046996.6,N
1550455935.3,286046995.1,N
1550455955.1,286046996.7,N
1550455975.9,286046998.8,N
1550455995.7,286046997.0,N
1550456015.5,286046999.6,N
1550456035.4,286046995.3,N
1550456055.2,286046997.1,N
1550456075.1,286046997.7,N
1550456076.0,286046997.7,N
1550456095.8,286046999.1,N
1550456115.6,286046997.3,N
1550456135.5,286046997.7,N
1550456155.3,286046999.8,N
1550456175.1,286046999.4,N
1550456195.9,286046995.0,Y
1550456215.7,286046999.1,P
1550456235.6,286046999.5,N
1550456255.4,286046997.9,N
1550456275.2,286046998.8,N
1550456295.1,286047001.0,N
1550456296.0,286047001.0,N
1550456315.8,286047002.3,N
1550456335.7,286047002.3,N
1550456355.5,286047002.2,N
1550456375.3,286047000.8,N
1550456395.2,286046999.2,N
1550456415.0,286046997.1,N
1550456415.9,286046997.1,N
1550456435.8,286046999.0,N
1550456455.6,286046997.7,N
1550456475.4,286046996.7,N
1550456495.3,286046998.0,N
1550456515.1,286046999.6,N
1550456535.9,286046998.7,N
1550456555.7,286046999.6,N
1550456575.5,286047001.0,N
1550456595.4,286047003.6,N
1550456615.2,286047004.4,N
1550456635.0,286047002.2,N
1550456635.9,286047002.2,N
1550456655.8,286047004.0,N
1550456675.6,286047004.3,N
1550456695.5,286047001.6,N
1550456715.3,286047002.2,N
1550456735.1,286047002.3,N
1550456755.9,286047001.6,N
1550456775.7,286047002.6,N
1550456795.5,286046998.7,N
1550456815.3,286046996.6,N
1550456835.2,286046996.6,N
1550456855.0,286047001.2,N
1550456855.9,286047001.2,N
1550456875.7,286046999.9,N
1550456895.6,286047001.1,N
1550456915.4,286047000.9,N
1550456935.3,286047000.6,N
1550456955.1,286047000.0,N
1550456956.0,286047000.0,N
1550456975.8,286047002.3,N
1550456995.7,286047001.8,N
1550457015.5,286047002.4,N
1550457035.3,286047000.8,N
1550457055.2,286047001.2,N
1550457075.0,286046996.5,N
1550457075.9,286046996.5,N
1550457095.8,286046998.8,N
1550457115.6,286046996.6,N
1550457135.4,286046997.0,N
1550457155.3,286046996.9,N
1550457175.1,286046999.2,N
1550457195.9,286046995.0,N
1550457215.7,286046996.7,N
1550457235.5,286046999.0,N
1550457255.4,286047001.8,N
1550457275.2,286047001.9,N
1550457295.0,286047001.2,N
1550457295.9,286047001.2,N
1550457315.8,286046998.4,N
1550457335.6,286047000.4,N
1550457355.5,286047001.6,N
1550457375.3,286047000.9,N
1550457395.1,286046998.6,N
1550457415.9,286047000.7,N
1550457435.7,286046998.1,N
1550457455.5,286046998.8,N
1550457475.4,286046995.3,N
1550457495.2,286046995.6,N
1550457515.1,286046996.7,N
1550457516.0,286046996.7,N
1550457535.8,286046999.0,N
1550457555.6,286047001.5,N
1550457575.5,286047003.8,N
1550457595.3,286047003.9,N
1550457615.1,286046999.7,N
1550457635.9,286047002.8,N
1550457655.7,286046999.8,N
1550457675.6,286046998.1,N
1550457695.4,286047000.8,N
1550457715.2,286047001.0,N
1550457735.1,286046999.0,N
1550457736.0,286046999.0,N
1550457755.8,286047002.3,N
1550457775.6,286047000.5,N
1550457795.5,286046999.1,N
1550457815.3,286046996.9,N
1550457835.2,286046997.9,N
1550457855.9,286046997.3,N
1550457875.7,286046999.6,N
1550457895.6,286046997.4,N
1550457915.4,286046999.6,N
1550457935.2,286046998.2,N
1550457955.1,286047000.1,N
1550457956.0,286047000.1,N
1550457975.8,286046998.5,N
1550457995.7,286047002.4,N
1550458015.5,286047002.8,N
1550458035.3,286047002.2,N
1550458055.2,286046999.1,N
1550458075.0,286046997.2,N
1550458075.9,286046997.2,N
1550458095.8,286046996.0,N
1550458115.6,286046995.9,N
1550458135.4,286046996.4,N
1550458155.3,286046994.9,N
1550458175.1,286046995.2,N
1550458195.8,286046996.5,N
1550458215.7,286046998.3,N
1550458235.5,286046999.6,N
1550458255.4,286046999.4,N
1550458275.2,286046999.4,N
1550458295.0,286046999.4,N
1550458295.9,286046999.4,N
1550458315.8,286046996.7,N
1550458335.6,286046999.0,N
1550458355.4,286046996.5,N
1550458375.3,286046997.1,N
1550458395.1,286046997.9,N
1550458415.9,286046998.0,N
1550458435.7,286046995.3,N
1550458455.5,286047001.1,N
1550458475.4,286046998.8,N
1550458495.2,286047000.9,N
1550458515.1,286047004.3,N
1550458516.0,286047004.3,N
1550458535.8,286047003.6,N
1550458555.6,286047003.0,N
1550458575.5,286047005.2,N
1550458595.3,286047003.5,N
1550458615.2,286047003.4,N
1550458635.9,286047003.9,N
1550458655.7,286047002.3,N
1550458675.6,286047002.4,N
1550458695.4,286047001.8,N
1550458715.2,286047001.6,N
1550458735.1,286047005.2,N
1550458736.0,286047005.2,N
1550458755.8,286047007.1,N
1550458775.7,286047003.5,N
1550458795.5,286047002.3,N
